COSMOS 2429 [-] (32052 NORAD) Tracking and Keplerian Element Data

This shows tracking and keplerian element data for the satellite.

Feedback or suggestion? Click here.




ElementValue
Catalog32052
NameCOSMOS 2429 [-]
Epoch Orbit54391
Epoch Day195.90916952
Epoch Year2018
RAAN178.449
Inclination82.9799
Eccentricity0.0039432
Argument of Perigee38.0852
Mean Anonmoly322.3079
Mean Motion13.74905123
Decay Rate2.5E-07
L11 32052U 07038A 18195.90916952 .00000025 00000-0 10121-4 0 9991
L22 32052 82.9799 178.4490 0039432 38.0852 322.3079 13.74905123543911

Live tracking and technical data element details for COSMOS 2429 [-] (NORAD 32052). COSMOS 2429 [-] can be tracked NOW for your location showing map with azimuth and elevation plus other details from your city location.

Track the satellite on the map from your city or location and see movement details for azimuth, elevation, latitude, longitude, range, height, and movement on the map or in text.







IsCatalogInMostPopularTable: catalog: 32052, numindb: 40
Update: records affected: 1



GetName: 32052 COSMOS 2429 [-]

Hit Count: updated at: Sun, 15 Jul 2018 23:12:09 GMT